     2              OBSERVATION DATA    GPS                 RINEX VERSION / TYPE
teqc 1997Sep10 19971030 21:34:11UTC                         PGM / RUN BY / DATE
                                                            COMMENT
Original Marker Name: 55487.PINY                            COMMENT
Campaign Name: NGS Imperial Valley 1990                     COMMENT
4-Character Station Name: PINY                              COMMENT
6-Character Antenna Code: TI4100                            COMMENT
Vertical Measurement Point: PAE                             COMMENT
Vertical Offset to Rinex Ref. Point: 0.0000                 COMMENT
Radial Measurement Point: RRP                               COMMENT
Radial Offset to Rinex Ref. Point: 0.0000                   COMMENT
Antenna Height from Field Measurement: 1.5530 m             COMMENT
Original XYZ: -2369634.5957 -4761257.8321 3511110.9584      COMMENT
New XYZ position is based on association with SCEC monument COMMENT
E1D0K5S1+0011. Position of that monument is believed to be  COMMENT
valid to within 1 m horizontally; vertical accuracy         COMMENT
should be no worse than 3-times this value.                 COMMENT
                                                            COMMENT
Revised Rinex header created by UCSD GPS archive for        COMMENT
GSAC on 12-Apr-1999 (1999:102) 10:20:53 GMT                 COMMENT
For assistance contact dagnew@ucsd.edu or hjohnson@ucsd.edu COMMENT
                                                            COMMENT
PINYON FLAT NCMN 1982                                       MARKER NAME
05 NATIONAL GEODETIC SURVEY                                 OBSERVER / AGENCY
111 TI 4100 1.9                                             REC # / TYPE / VERS
4053 TI 4100                                                ANT # / TYPE
 -2369636.0000 -4761325.0000  3511116.0000                  APPROX POSITION XYZ
        1.5530        0.0000        0.0000                  ANTENNA: DELTA H/E/N
     1     1     0                                          WAVELENGTH FACT L1/2
     4    P1    P2    L1    L2                              # / TYPES OF OBSERV
    15                                                      INTERVAL
  1990     2    27    10     4   44.000000                  TIME OF FIRST OBS
  1990     2    27    10    20   59.000000                  TIME OF LAST OBS
     0                                                      # OF SATELLITES
                                                            END OF HEADER
 90  2 27 10  4 44.0800000  0  4G 3G16G19G13
  21262165.002    21262168.388    55375976.334 8 -91806943.627 7
  22283403.361    22283407.124     6319992.163 9 -23873566.396 8
  23935398.041    23935403.389    52590830.772 8 -57164195.818 6
  23181324.629    23181327.284   102101658.849 8-107069541.162 7
 90  2 27 10  4 59.0800000  0  4G 3G16G19G13
  21261831.798    21261836.343    55374231.926 9 -91808302.897 8
  22274606.736    22274610.487     6273764.129 9 -23909588.233 7
  23941906.001    23941909.299    52625017.815 7 -57137556.593 7
  23186251.548    23186255.719   102127552.631 8-107049364.209 7
 90  2 27 10  5 14.0800000  0  4G 3G16G19G13
  21261508.699    21261513.027    55372528.004 8 -91809630.643 7
  22265821.707    22265825.178     6227604.941 9 -23945556.413 8
  23948417.623    23948422.849    52659248.963 7 -57110882.995 6
  23191183.313    23191188.082   102153474.741 8-107029165.198 7
 90  2 27 10  5 29.0800000  0  4G 3G16G19G13
  21261191.065    21261196.853    55370864.583 8 -91810926.823 7
  22257051.326    22257055.092     6181515.036 9 -23981470.609 8
  23954940.837    23954946.668    52693523.556 7 -57084175.543 7
  23196123.070    23196127.567   102179425.076 8-107008944.166 7
 90  2 27 10  5 44.0800000  0  4G 3G16G19G13
  21260881.985    21260888.448    55369241.582 9 -91812191.507 7
  22248294.316    22248298.751     6135494.704 8 -24017330.582 8
  23961472.116    23961477.344    52727841.504 7 -57057434.344 8
  23201067.113    23201071.095   102205403.725 8-106988701.075 8
 90  2 27 10  5 59.0800000  0  4G 3G16G19G13
  21260579.833    21260586.593    55367659.420 8 -91813424.353 7
  22239549.537    22239554.604     6089544.483 9 -24053135.930 9
  23968010.002    23968016.052    52762202.521 8 -57030659.565 7
  23206014.350    23206018.231   102231410.974 8-106968435.699 7
 90  2 27 10  6 14.0800000  0  4G 3G16G19G13
  21260285.549    21260293.083    55366118.116 8 -91814625.379 8
  22230818.515    22230823.289     6043664.536 9 -24088886.497 8
  23974557.979    23974562.792    52796606.238 7 -57003851.486 7
  23210968.565    23210974.050   102257446.752 8-106948148.128 7
 90  2 27 10  6 29.0800000  0  4G 3G16G19G13
  21260000.597    21260006.873    55364617.631 8 -91815794.574 7
  22222100.749    22222106.349     5997855.229 9 -24124582.036 8
  23981111.879    23981116.864    52831052.188 7 -56977010.512 7
  23215929.332    23215935.589   102283511.195 8-106927838.184 8
 90  2 27 10  6 44.0800000  0  4G 3G16G19G13
  21259723.284    21259728.373    55363158.115 8 -91816931.855 8
  22213397.968    22213401.347     5952116.981 8 -24160222.198 9
  23987674.851    23987681.232    52865540.099 7 -56950136.815 8
  23220894.199    23220900.567   102309604.289 8-106907505.932 8
 90  2 27 10  6 59.0800000  0  4G 3G16G19G13
  21259452.525    21259457.244    55361739.808 7 -91818037.025 7
  22204708.155    22204711.395     5906449.929 9 -24195806.891 7
  23994245.767    23994251.923    52900069.596 7 -56923230.757 8
  23225864.657    23225869.405   102335726.006 9-106887151.368 7
 90  2 27 10  7 14.0800000  0  4G 3G16G19G13
  21259190.810    21259194.185    55360362.662 8 -91819110.077 7
  22196031.906    22196034.252     5860854.694 8 -24231335.628 7
  24000824.431    24000830.581    52934640.038 7 -56896292.763 7
  23230841.852    23230845.909   102361876.520 8-106866774.360 7
 90  2 27 10  7 29.0800000  0  4G 3G16G19G13
  21258938.914    21258941.828    55359027.146 9 -91820150.718 7
  22187369.687    22187372.165     5815331.444 9 -24266808.272 7
  24007409.533    24007413.947    52969251.164 6 -56869323.036 7
  23235824.214    23235828.514   102388056.126 9-106846374.685 7
 90  2 27 10  7 44.0800000  0  4G 3G16G19G13
  21258692.542    21258693.533    55357733.065 8 -91821159.079 7
  22178720.723    22178724.314     5769880.663 9 -24302224.443 8
  24014001.860    24014009.524    53003902.682 7 -56842321.937 8
  23240810.356    23240816.180   102414264.763 8-106825952.384 7
 90  2 27 10  7 59.0800000  0  4G 3G16G19G13
  21258455.205    21258454.945    55356480.629 8 -91822135.008 7
  22170084.275    22170088.789     5724502.631 8 -24337583.930 8
  24020608.679    24020612.448    53038594.298 8 -56815289.515 8
  23245803.669    23245808.753   102440502.506 9-106805507.413 7
 90  2 27 10  8 14.0800000  0  4G 3G16G19G13
  21258224.457    21258224.723    55355269.908 8 -91823078.428 6
  22161462.962    22161467.008     5679197.767 9 -24372886.384 8
  24027216.092    24027219.999    53073325.702 7 -56788226.096 8
  23250802.361    23250805.616   102466769.407 9-106785039.714 7
 90  2 27 10  8 29.0800000  0  4G 3G16G19G13
  21258000.518    21258004.136    55354101.127 9 -91823989.191 8
  22152856.082    22152859.901     5633966.375 9 -24408131.605 7
  24033831.935    24033836.736    53108096.458 7 -56761132.030 8
  23255806.635    23255811.221   102493065.756 9-106764549.074 7
 90  2 27 10  8 44.0800000  0  4G 3G16G19G13
  21257786.339    21257788.453    55352974.439 9 -91824867.148 6
  22144262.453    22144267.755     5588808.913 8 -24443319.220 8
  24040455.639    24040461.990    53142906.083 6 -56734007.644 7
  23260815.785    23260820.488   102519391.464 8-106744035.569 8
 90  2 27 10  8 59.0800000  0  4G 3G16G19G13
  21257580.571    21257581.914    55351889.808 9 -91825712.303 7
  22135681.961    22135687.217     5543725.467 9 -24478449.147 7
  24047086.887    24047092.622    53177754.263 7 -56706853.227 7
  23265829.795    23265836.080   102545746.593 8-106723499.118 7
 90  2 27 10  9 14.0800000  0  4G 3G16G19G13
  21257382.965    21257383.431    55350847.309 8 -91826524.660 6
  22127118.504    22127122.954     5498716.470 9 -24513521.071 7
  24053726.479    24053731.864    53212640.623 8 -56679669.041 8
  23270850.913    23270856.068   102572131.141 7-106702939.736 7
 90  2 27 10  9 29.0800000  0  4G 3G16G19G13
  21257193.311    21257195.397    55349847.125 9 -91827304.046 7
  22118568.442    22118571.389     5453782.443 9 -24548534.568 7
  24060370.323    24060377.225    53247564.882 8 -56652455.373 8
  23275878.116    23275884.802   102598545.189 8-106682357.391 7
 90  2 27 10  9 44.0800000  0  4G 3G16G19G13
  21257010.666    21257013.725    55348889.624 8 -91828050.169 7
  22110032.051    22110036.106     5408923.652 8 -24583489.470 8
  24067024.772    24067031.257    53282526.711 7 -56625212.413 8
  23280911.202    23280914.295   102624989.146 9-106661751.727 7
 90  2 27 10  9 59.0800000  0  4G 3G16G19G13
  21256836.898    21256840.283    55347974.489 9 -91828763.269 7
  22101510.032    22101514.088     5364140.421 9 -24618385.462 8
  24073685.374    24073690.876    53317525.377 8 -56597940.726 8
  23285946.619    23285954.194   102651462.665 8-106641123.063 8
 90  2 27 10 10 14.0800000  0  4G 3G16G19G13
  21256669.424    21256671.293    55347102.075 8 -91829443.038 7
  22093003.919    22093007.480     5319432.989 9 -24653222.408 8
  24080350.657    24080359.190    53352560.625 8 -56570640.549 8
  23290990.499    23290996.714   102677966.136 9-106620471.019 7
 90  2 27 10 10 29.0800000  0  4G 3G16G19G13
  21256511.964    21256514.678    55346272.582 9 -91830089.399 7
  22084509.739    22084514.633     5274801.917 9 -24687999.849 8
  24087025.094    24087032.958    53387632.481 6 -56543311.849 8
  23296040.071    23296045.857   102704499.680 7-106599795.570 8
 90  2 27 10 10 44.0800000  0  4G 3G16G19G13
  21256362.435    21256365.287    55345486.020 9 -91830702.296 8
  22076031.287    22076035.549     5230247.516 9 -24722717.537 8
  24093706.693    24093710.915    53422740.040 9 -56515955.311 8
  23301096.001    23301100.470   102731063.290 7-106579096.673 8
 90  2 27 10 10 59.0800000  0  4G 3G16G19G13
  21256218.913    21256225.219    55344742.543 9 -91831281.624 7
  22067567.392    22067572.195     5185770.011 9 -24757375.297 8
  24100394.708    24100400.197    53457883.047 7 -56488571.173 8
  23306155.164    23306161.320   102757657.162 8-106558374.207 8
 90  2 27 10 11 14.0800000  0  4G 3G16G19G13
  21256085.782    21256091.041    55344042.321 7 -91831827.244 8
  22059117.114    22059122.690     5141369.725 9 -24791972.898 8
  24107087.942    24107094.569    53493061.460 8 -56461159.461 8
  23311223.148    23311228.478   102784281.238 7-106537628.206 9
 90  2 27 10 11 29.0800000  0  4G 3G16G19G13
  21255962.351    21255965.750    55343385.456 8 -91832339.088 8
  22050683.070    22050688.966     5097047.161 9 -24826509.945 8
  24113790.123    24113795.261    53528274.695 8 -56433720.568 8
  23316294.668    23316301.269   102810935.674 7-106516858.548 9
 90  2 27 10 11 44.0800000  0  4G 3G16G19G13
  21255844.672    21255849.946    55342772.116 8 -91832817.032 7
  22042263.263    22042268.407     5052802.544 9 -24860986.239 9
  24120497.127    24120503.228    53563522.520 8 -56406254.764 9
  23321373.385    23321377.744   102837620.492 8-106496065.189 8
 90  2 27 10 11 59.0800000  0  4G 3G16G19G13
  21255735.609    21255741.012    55342202.360 8 -91833261.004 8
  22033859.047    22033863.086     5008636.418 9 -24895401.378 7
  24127210.428    24127217.849    53598804.462 8 -56378762.364 8
  23326454.218    23326461.310   102864335.888 7-106475248.038 8
 90  2 27 10 12 14.0800000  0  4G 3G16G19G13
  21255636.733    21255642.224    55341676.264 8 -91833670.950 8
  22025470.611    22025473.895     4964548.785 9 -24929755.353 8
  24133930.160    24133936.544    53634120.034 8 -56351243.751 8
  23331544.055    23331550.670   102891081.788 7-106454407.107 7
 90  2 27 10 12 29.0800000  0  4G 3G16G19G13
  21255545.354    21255549.657    55341194.089 9 -91834046.660 8
  22017094.897    22017099.005     4920540.389 8 -24964047.598 7
  24140657.246    24140663.132    53669469.184 8 -56323698.970 7
  23336642.534    23336646.625   102917858.297 8-106433542.320 8
 90  2 27 10 12 44.0800000  0  4G 3G16G19G13
  21255462.303    21255466.991    55340755.762 9 -91834388.224 7
  22008735.826    22008739.984     4876611.201 9 -24998278.097 8
  24147391.602    24147396.286    53704851.291 8 -56296128.517 8
  23341742.399    23341747.789   102944665.334 7-106412653.758 7
 90  2 27 10 12 59.0800000  0  4G 3G16G19G13
  21255387.612    21255390.966    55340361.761 9 -91834695.219 7
  22000391.266    22000396.574     4832761.842 8 -25032446.417 7
  24154129.575    24154136.283    53740266.102 8 -56268532.578 7
  23346849.909    23346855.624   102971503.341 8-106391741.079 8
 90  2 27 10 13 14.0800000  0  4G 3G16G19G13
  21255321.073    21255324.949    55340011.762 9 -91834967.946 8
  21992063.080    21992067.658     4788992.376 9 -25066552.476 8
  24160875.501    24160881.228    53775712.922 8 -56240911.703 8
  23351962.194    23351967.786   102998372.147 8-106370804.341 8
 90  2 27 10 13 29.0800000  0  4G 3G16G19G13
  21255263.007    21255265.764    55339706.099 8 -91835206.118 7
  21983748.567    21983753.973     4745303.417 9 -25100595.799 8
  24167627.077    24167633.705    53811191.715 9 -56213265.924 8
  23357082.425    23357086.931   103025272.019 8-106349843.404 7
 90  2 27 10 13 44.0800000  0  4G 3G16G19G13
  21255212.067    21255216.611    55339445.144 7 -91835409.470 8
  21975451.046    21975453.677     4701695.228 8 -25134576.168 8
  24174384.740    24174390.154    53846702.190 9 -56185595.449 8
  23362207.176    23362211.905   103052203.091 7-106328858.189 7
 90  2 27 10 13 59.0800000  0  4G 3G16G19G13
  21255168.138    21255175.015    55339228.638 8 -91835578.198 8
  21967168.106    21967171.648     4658168.081 9 -25168493.406 8
  24181147.799    24181152.850    53882243.563 8 -56157900.906 7
  23367336.301    23367341.608   103079165.120 7-106307848.846 8
 90  2 27 10 14 14.0800000  0  4G 3G16G19G13
  21255137.431    21255140.900    55339056.936 9 -91835711.971 7
  21958899.513    21958903.920     4614722.411 9 -25202347.161 7
  24187917.205    24187923.738    53917815.995 9 -56130182.139 7
  23372473.856    23372479.269   103106158.477 8-106286815.094 7
 90  2 27 10 14 29.0800000  0  4G 3G16G19G13
  21255114.106    21255117.165    55338929.918 8 -91835810.948 7
  21950648.533    21950651.345     4571358.445 9 -25236137.244 8
  24194692.063    24194698.166    53953418.607 9 -56102439.848 7
  23377616.946    23377620.819   103133182.983 7-106265757.060 7
 90  2 27 10 14 44.0800000  0  4G 3G16G19G13
  21255099.367    21255100.994    55338848.268 9 -91835874.568 7
  21942411.863    21942416.077     4528076.988 9 -25269863.027 8
  24201473.108    24201478.640    53989051.646 9 -56074673.861 7
  23382764.008    23382769.690   103160239.386 8-106244674.177 7
 90  2 27 10 14 59.0800000  0  4G 3G16G19G13
  21255091.184    21255095.859    55338811.002 9 -91835903.610 7
  21934190.823    21934194.651     4484877.155 9 -25303525.218 8
  24208259.794    24208263.025    54024713.678 9 -56046885.258 7
  23387918.831    23387925.139   103187326.612 8-106223567.282 7
 90  2 27 10 15 14.0800000  0  4G 3G16G19G13
  21255092.471    21255096.948    55338819.000 9 -91835897.375 7
  21925985.082    21925989.190     4441760.104 8 -25337122.888 7
  24215051.026    24215056.003    54060404.932 9 -56019073.901 6
  23393079.498    23393086.144   103214445.341 7-106202435.837 8
 90  2 27 10 15 29.0800000  0  4G 3G16G19G13
  21255102.834    21255105.790    55338872.767 8 -91835855.485 8
  21917796.976    21917801.221     4398726.528 8 -25370655.530 7
  24221847.566    24221853.523    54096125.371 8 -55991239.799 5
  23398247.177    23398252.332   103241596.146 8-106181279.378 7
 90  2 27 10 15 44.0800000  0  4G 3G16G19G13
  21255123.898    21255124.792    55338972.275 9 -91835777.936 8
  21909622.608    21909628.209     4355776.897 8 -25404122.767 8
  24228650.990    24228656.428    54131874.838 7 -55963383.101 7
  23403420.080    23403425.903   103268779.063 8-106160097.907 8
 90  2 27 10 15 59.0800000  0  4G 3G16G19G13
  21255150.653    21255153.897    55339117.347 9 -91835664.890 7
  21901465.484    21901471.890     4312910.720 9 -25437524.954 8
  24235459.136    24235464.090    54167652.574 7 -55935504.337 7
  23408599.287    23408603.223   103295993.615 9-106138891.754 7
 90  2 27 10 16 14.0800000  0  4G 3G16G19G13
  21255186.858    21255190.028    55339308.128 9 -91835516.251 8
  21893326.722    21893329.575     4270128.532 9 -25470861.696 8
  24242272.834    24242278.581    54203457.930 8 -55907604.057 7
  23413782.609    23413788.226   103323239.771 8-106117661.014 8
 90  2 27 10 16 29.0800000  0  4G 3G16G19G13
  21255231.073    21255235.303    55339545.022 8 -91835331.663 7
  21885200.726    21885204.318     4227431.238 9 -25504132.297 8
  24249091.838    24249097.179    54239291.144 8 -55879682.075 7
  23418975.450    23418979.505   103350518.300 7-106096405.040 8
 90  2 27 10 16 44.0800000  0  4G 3G16G19G13
  21255284.618    21255290.150    55339827.865 7 -91835111.271 8
  21877091.265    21877094.847     4184818.517 9 -25537336.991 7
  24255916.044    24255920.934    54275151.249 8 -55851739.155 7
  23424171.272    23424177.545   103377828.893 8-106075124.112 8
 90  2 27 10 16 59.0800000  0  4G 3G16G19G13
  21255347.549    21255352.425    55340156.979 8 -91834854.832 7
  21868998.222    21869002.257     4142291.116 9 -25570475.193 8
  24262745.138    24262750.237    54311038.062 7 -55823775.410 6
  23429374.913    23429378.843   103405171.836 7-106053817.964 6
 90  2 27 10 17 14.0800000  0  4G 3G16G19G13
  21255417.924    21255422.983    55340532.387 8 -91834562.304 7
  21860922.208    21860924.976     4099849.128 9 -25603546.852 8
  24269578.767    24269584.003    54346950.979 7 -55795791.310 7
  23434584.699    23434589.460   103432546.789 8-106032486.848 7
 90  2 27 10 17 29.0800000  0  4G 3G16G19G13
  21255499.773    21255503.304    55340954.168 8 -91834233.643 8
  21852861.634    21852867.985     4057492.965 9 -25636551.657 7
  24276416.811    24276422.141    54382890.073 7 -55767786.792 5
  23439799.227    23439804.274   103459953.941 9-106011130.642 7
 90  2 27 10 17 44.0800000  0  4G 3G16G19G13
  21255589.320    21255592.034    55341422.554 9 -91833868.644 6
  21844817.529    21844823.267     4015223.038 8 -25669489.220 8
  24283262.075    24283265.809    54418854.611 7 -55739762.458 6
  23445022.020    23445026.191   103487393.558 8-105989749.132 7
 90  2 27 10 17 59.0800000  0  4G 3G16G19G13
  21255687.426    21255688.635    55341937.621 8 -91833467.279 7
  21836791.541    21836795.165     3973039.625 8 -25702359.385 8
  24290109.735    24290115.324    54454844.493 7 -55711718.428 7
  23450249.882    23450254.680   103514865.619 8-105968342.339 7
 90  2 27 10 18 14.0800000  0  4G 3G16G19G13
  21255793.399    21255796.912    55342499.506 9 -91833029.468 7
  21828780.574    21828785.797     3930943.144 9 -25735161.821 8
  24296964.361    24296968.639    54490859.317 7 -55683654.984 7
  23455483.692    23455487.470   103542370.423 8-105946910.056 8
 90  2 27 10 18 29.0800000  0  4G 3G16G19G13
  21255910.505    21255912.558    55343108.452 9 -91832554.954 8
  21820785.878    21820789.129     3888933.716 8 -25767896.423 8
  24303822.483    24303827.169    54526898.798 7 -55655572.295 6
  23460722.930    23460728.167   103569907.878 8-105925452.311 7
 90  2 27 10 18 44.0800000  0  4G 3G16G19G13
  21256036.085    21256037.265    55343764.648 9 -91832043.624 8
  21812809.829    21812813.594     3847011.858 9 -25800562.783 7
  24310683.618    24310689.496    54562962.406 6 -55627470.838 7
  23465969.354    23465974.450   103597478.106 8-105903969.048 7
 90  2 27 10 18 59.0800000  0  4G 3G16G19G13
  21256168.903    21256170.812    55344468.056 9 -91831495.511 7
  21804847.765    21804851.170     3805177.718 9 -25833160.786 7
  24317550.873    24317557.851    54599050.026 6 -55599350.669 6
  23471221.903    23471227.918   103625081.211 8-105882460.181 8
 90  2 27 10 19 14.0800000  0  4G 3G16G19G13
  21256310.648    21256314.234    55345218.758 8 -91830910.543 7
  21796905.365    21796907.092     3763431.879 9 -25865689.992 8
  24324422.299    24324429.330    54635160.856 6 -55571212.439 7
  23476480.538    23476486.344   103652717.094 9-105860925.733 6
 90  2 27 10 19 29.0800000  0  4G 3G16G19G13
  21256461.809    21256466.572    55346017.053 8 -91830288.505 9
  21788977.729    21788981.628     3721774.451 9 -25898150.301 7
  24331297.469    24331304.273    54671294.538 6 -55543056.335 7
  23481745.949    23481750.450   103680386.047 9-105839365.516 7
 90  2 27 10 19 44.0800000  0  4G 3G16G19G13
  21256622.619    21256628.653    55346863.100 8 -91829629.247 7
  21781067.758    21781070.591     3680205.882 9 -25930541.370 8
  24338177.999    24338186.363    54707450.875 6 -55514882.613 7
  23487017.763    23487021.779   103708088.135 8-105817779.491 7
 90  2 27 10 19 59.0800000  0  4G 3G16G19G13
  21256791.295    21256796.942    55347756.803 8 -91828932.876 8
  21773173.886    21773177.989     3638726.451 9 -25962862.995 8
  24345063.570    24345070.971    54743629.412 6 -55486691.598 6
  23492296.361    23492300.580   103735823.390 8-105796167.641 8
 90  2 27 10 20 14.0800000  0  4G 3G16G19G13
  21256971.337    21256975.492    55348698.504 8 -91828199.103 7
  21765298.091    21765300.544     3597336.447 9 -25995114.903 7
  24351953.540    24351957.977    54779830.003 6 -55458483.381 6
  23497580.809    23497586.475   103763591.943 8-105774529.832 7
 90  2 27 10 20 29.0800000  0  4G 3G16G19G13
  21257159.414    21257165.835    55349688.412 6 -91827427.768 7
  21757438.762    21757441.762     3556036.380 9 -26027296.746 7
  24358845.276    24358852.099    54816052.267 7 -55430258.300 6
  23502870.991    23502875.417   103791393.970 8-105752865.925 6
 90  2 27 10 20 44.0800000  0  4G 3G16G19G13
  21257359.403    21257362.814    55350726.318 9 -91826619.010 8
  21749596.812    21749600.768     3514826.449 8 -26059408.371 8
  24365742.041    24365747.269    54852295.579 7 -55402016.794 6
  23508166.657    23508172.590   103819229.452 8-105731175.960 7
